Location: Colle Santa Colomba
(42.0333°N, 12.5667°E)
Time: 22:54:17
(UTC+00:00)

Tiangong - Visible Passes

Search period start: 26 November 2022 00:00
Search period end: 06 December 2022 00:00
Orbit: 387 x 394 km, 41.5° (Epoch: 26 November)

Date Brightness Start Highest point End Pass type
(mag) Time Alt. Az. Time Alt. Az. Time Alt. Az.
28 Nov 0.1 17:24:43 10° SSW 17:26:15 16° SSE 17:26:15 16° SSE visible
29 Nov 0.5 16:28:36 10° SSE 16:29:17 11° SE 16:30:00 10° SE visible
29 Nov 0.6 18:02:41 10° SW 18:03:39 18° SW 18:03:39 18° SW visible
30 Nov -0.8 17:05:11 10° SW 17:07:58 28° SSE 17:08:38 26° SE visible
01 Dec -0.1 16:07:56 10° SSW 16:10:15 19° SSE 16:12:35 10° ESE visible
01 Dec -0.7 17:43:42 10° WSW 17:45:52 38° SW 17:45:52 38° SW visible
02 Dec -1.4 16:45:56 10° SW 16:49:00 44° SSE 16:50:43 22° E visible
02 Dec 1.3 18:22:38 10° W 18:23:02 13° W 18:23:02 13° W visible
03 Dec -2.1 17:24:42 10° W 17:27:50 76° S 17:27:50 76° S visible
04 Dec -1.9 16:26:46 10° WSW 16:29:57 63° SSE 16:32:36 14° E visible
04 Dec 0.5 18:03:38 10° W 18:04:56 22° W 18:04:56 22° W visible
05 Dec -2.2 17:05:38 10° W 17:08:49 83° S 17:09:41 45° E visible
